Theta_e
333 331 331 329 329 329 327 325 323 322 320 319 318 318 316 315 315 315 315 315 315 315 315 313 313 314 315 316 316 317 318 318 317 316 315 314 315 315 315 316 316 317 317
324 325 323 325 324 322 320 319 317 316 314 313 313 313 314 315 314 313 312 311 311 310 310 310 311 312 313 313 314 315 315 315 315 314 314 314 315 315 314 314 315 316 316
321 321 319 317 315 315 313 313 314 314 314 315 315 315 314 312 311 309 309 308 307 307 308 309 310 312 313 314 313 314 314 314 314 314 314 314 313 313 313 314 314 314 315
318 317 316 316 316 315 315 315 315 315 314 314 313 312 311 310 308 307 306 306 306 306 308 310 312 313 314 313 312 312 310 309 310 311 311 311 311 311 312 313 314 314 315
316 315 314 314 314 314 314 314 313 313 312 311 311 310 309 308 306 306 305 306 307 308 310 310 310 310 311 310 306 305 305 305 306 307 308 308 308 308 309 309 310 310 311
314 313 313 313 312 311 311 310 309 309 308 308 308 308 307 306 305 304 304 305 305 307 308 309 309 310 309 306 305 304 301 302 303 304 305 305 306 306 307 308 309 309 309
312 312 311 311 310 309 308 307 306 306 305 306 306 307 306 305 303 303 305 305 306 306 307 308 309 304 301 300 300 301 302 302 301 302 303 304 304 305 305 306 306 307 308
311 310 309 309 308 307 306 306 306 305 304 304 305 306 305 303 302 302 304 303 304 306 307 306 302 299 297 296 297 298 299 300 300 300 301 301 302 304 304 304 304 304 304
309 308 307 306 305 304 304 303 304 304 303 304 305 304 302 300 300 302 302 302 303 304 303 301 298 296 295 296 296 296 296 297 300 301 304 305 306 309 311 310 305 304 305
307 306 305 304 304 303 302 302 302 302 301 302 303 301 300 299 300 300 299 301 302 302 301 299 297 296 296 296 295 295 295 297 299 302 307 309 309 310 310 309 308 307 305
305 305 304 303 302 301 300 299 300 298 298 299 299 299 298 297 299 299 300 300 301 301 300 298 297 296 296 296 295 295 296 297 299 300 302 304 307 310 308 306 306 306 306
304 303 301 300 299 297 296 296 296 295 295 295 296 296 296 295 298 299 301 301 300 300 299 298 296 296 296 296 296 296 297 297 298 299 301 304 307 310 309 307 306 306 306
303 301 299 298 297 295 294 293 294 293 292 292 292 293 292 293 296 299 299 300 301 300 298 296 296 296 296 296 296 296 297 296 297 298 300 304 307 311 310 307 307 306 308
302 301 299 297 295 294 292 291 291 291 290 289 289 290 290 291 294 297 297 298 302 300 297 296 294 295 295 295 297 297 296 295 296 297 300 303 308 308 309 309 308 308 307
301 301 299 297 295 293 291 290 289 289 288 288 288 289 288 290 293 295 294 294 296 295 294 294 292 292 292 293 294 294 295 295 295 296 300 302 307 307 307 307 310 311 308
300 301 299 296 294 293 292 290 290 290 290 290 290 290 289 290 295 295 294 292 293 292 292 291 291 291 291 291 292 293 294 294 294 296 299 301 306 308 307 305 305 307 309
300 300 298 296 293 291 290 290 290 290 291 291 292 292 292 292 291 291 291 291 291 291 292 291 290 290 290 289 290 291 292 293 293 295 298 300 304 307 309 306 304 304 304
299 299 298 297 294 292 292 292 292 291 291 291 292 293 294 293 293 292 291 290 290 290 290 291 290 289 288 288 288 289 290 290 291 293 296 298 303 306 309 304 302 302 303
298 299 298 297 295 294 293 293 293 292 292 292 292 293 294 293 294 293 292 291 290 290 290 289 288 287 287 286 286 287 288 288 288 290 293 295 301 305 308 306 303 302 301
294 296 296 297 295 294 294 294 293 292 292 292 292 293 293 293 293 292 293 292 291 291 289 288 286 286 285 285 285 286 286 287 288 289 291 293 300 303 305 308 306 303 301
293 293 292 292 292 293 292 292 292 292 292 292 291 292 291 292 292 293 291 292 291 291 289 287 285 285 284 284 284 285 286 286 287 288 290 293 298 302 303 304 307 305 302
293 293 292 291 291 291 291 291 291 291 291 291 291 291 290 290 290 291 292 291 290 290 289 288 285 283 283 283 283 284 284 286 287 289 291 293 295 300 301 302 303 305 305
293 293 293 293 292 291 290 291 291 291 291 290 290 290 290 290 290 289 290 290 290 289 289 287 286 283 282 283 284 284 284 286 288 289 290 291 293 295 299 300 301 301 303
293 292 292 292 292 291 291 290 290 290 290 289 289 289 289 288 289 288 288 289 288 288 287 287 286 284 282 282 283 284 285 286 287 289 289 290 291 293 297 299 299 300 300
292 292 292 292 292 291 291 291 290 289 290 290 288 288 288 287 287 288 287 287 287 287 286 285 285 284 281 281 281 283 284 285 286 287 288 289 290 292 293 297 299 298 299
291 291 291 290 290 290 289 289 289 289 288 288 288 288 287 287 286 287 286 286 286 285 285 284 284 283 281 281 281 282 283 284 285 286 287 288 289 291 292 293 296 297 296
Wind_Speed
35 32 31 28 26 24 22 19 17 14 11 11 10 9 12 11 13 14 14 14 14 16 18 21 23 23 21 23 23 23 21 21 13 26 26 28 28 34 37 36 35 34 35
31 34 30 25 21 21 18 15 12 12 11 11 12 13 14 12 13 15 16 18 20 22 24 25 24 23 23 23 24 24 24 23 21 20 26 27 27 29 32 34 34 32 33
32 30 27 23 21 19 18 15 14 15 16 15 16 14 13 15 17 20 22 24 23 21 19 20 22 24 26 24 26 23 21 20 22 23 25 25 27 28 30 27 29 32 33
33 29 26 22 20 19 17 17 16 15 17 19 19 19 17 18 21 23 24 23 22 19 18 20 23 22 23 18 19 17 19 22 21 22 25 27 28 32 29 28 26 25 25
31 28 25 22 20 20 19 17 16 15 17 17 16 16 17 20 21 23 25 22 18 20 21 21 20 21 17 23 21 24 26 22 23 22 23 24 25 22 20 24 23 25 26
28 26 24 25 23 21 20 19 18 17 17 16 17 15 15 16 20 22 23 18 17 17 22 24 24 18 22 28 34 34 27 23 25 20 22 18 25 24 25 22 21 18 8
28 26 25 24 23 21 20 21 20 19 15 14 14 12 14 18 22 24 22 18 20 21 20 21 18 22 30 41 37 31 28 24 17 21 23 25 24 28 25 25 22 19 19
27 26 24 24 23 21 21 19 16 17 17 16 14 15 12 18 21 24 22 21 20 19 20 20 22 32 33 29 32 33 31 30 26 23 24 30 31 33 30 27 28 23 22
25 26 24 22 21 20 19 17 17 15 15 16 16 15 16 19 20 21 23 24 23 23 23 22 25 32 29 26 29 29 29 28 29 26 24 25 26 24 23 22 19 10 4
24 24 22 21 19 17 17 17 15 15 14 15 17 17 19 20 17 21 25 26 31 28 27 28 28 32 29 29 30 26 27 31 32 32 31 29 25 22 19 18 18 12 6
23 25 23 21 19 19 19 18 18 17 17 17 17 16 17 22 16 20 20 25 26 22 27 29 28 32 31 30 28 27 28 29 29 27 27 26 27 23 23 18 17 12 6
22 23 25 23 20 18 18 18 20 20 20 19 18 18 17 21 22 20 20 21 21 20 26 30 31 31 30 29 32 34 33 30 27 26 25 25 26 23 21 18 15 11 3
21 22 23 22 21 21 24 23 24 22 22 19 17 17 21 23 23 22 22 22 23 18 23 29 29 31 32 33 35 39 38 34 29 26 26 27 30 27 19 14 13 9 11
20 21 21 23 24 23 23 25 25 25 21 18 18 20 21 23 25 24 26 26 24 20 25 25 26 25 27 32 41 39 35 31 27 27 29 31 27 29 26 20 7 7 6
21 19 19 21 22 24 26 23 22 21 24 24 25 19 21 24 24 22 27 24 21 21 21 25 35 36 36 37 36 35 34 37 35 34 31 31 25 27 26 27 21 6 6
18 20 21 20 19 18 17 19 18 17 17 17 18 27 28 21 16 19 19 25 22 24 27 26 26 28 28 30 31 33 33 35 35 33 33 32 31 21 21 24 21 16 12
21 20 21 20 22 21 20 19 17 18 17 17 18 17 24 32 35 21 19 24 29 30 26 25 26 27 28 30 29 29 31 33 32 32 32 32 32 29 20 19 19 16 15
19 18 21 18 19 19 20 19 18 17 20 20 18 16 13 20 30 35 35 33 29 31 28 26 26 27 29 30 31 32 34 35 36 35 34 34 34 32 23 24 21 18 16
13 16 16 15 16 15 13 13 17 19 22 25 26 25 18 18 18 29 33 33 26 24 25 27 26 27 28 31 32 31 34 34 36 34 35 36 35 33 26 22 21 22 18
22 22 16 15 15 14 13 10 10 14 18 22 23 24 22 22 24 28 26 28 31 24 25 26 27 27 28 30 33 35 36 38 41 39 38 37 36 34 32 24 24 20 19
21 20 18 21 20 20 18 18 20 19 21 17 26 21 23 25 25 22 29 28 29 26 26 26 29 29 31 31 33 35 39 39 41 40 38 39 33 33 31 29 24 23 20
20 19 18 20 19 20 19 19 20 21 21 22 19 22 25 28 28 28 24 25 26 26 23 32 32 34 34 33 34 34 37 41 42 41 41 38 31 32 31 28 27 23 21
21 19 20 20 20 19 19 20 21 19 19 20 22 20 23 24 26 27 27 25 24 27 23 30 34 39 36 35 34 35 37 39 39 37 37 33 32 30 31 28 28 26 23
20 21 20 20 19 18 19 19 18 20 19 20 22 23 22 23 25 26 26 25 25 25 26 27 31 35 35 35 34 33 33 32 33 32 31 32 32 34 25 30 29 29 25
21 23 23 21 19 19 20 17 17 17 20 18 19 21 21 21 23 23 23 24 23 24 25 26 27 31 34 33 34 33 32 31 31 32 32 32 34 37 30 25 25 28 29
19 19 19 20 20 20 17 17 18 19 18 19 19 19 20 20 21 23 22 22 21 21 22 24 25 27 32 33 33 33 33 32 32 32 31 32 35 35 35 27 23 25 27
Wind_Direction
106 106 105 99 96 97 93 92 93 95 88 78 63 59 46 31 15 8 6 360 357 349 342 338 331 329 328 325 322 316 311 311 300 301 301 302 299 300 301 300 299 294 293
100 101 99 98 98 96 95 89 85 77 64 57 47 47 43 35 30 27 14 359 350 342 335 332 328 328 325 326 323 316 308 305 295 296 303 301 299 299 297 296 296 296 287
100 100 95 94 92 86 82 79 71 63 57 50 47 45 58 41 28 11 358 347 339 333 333 331 329 329 328 325 322 319 319 318 312 297 300 302 298 296 294 289 290 291 288
95 96 95 93 90 88 82 75 71 70 58 61 61 54 48 31 16 1 354 348 342 340 341 339 334 333 333 342 340 336 332 326 314 303 298 300 300 296 293 291 295 293 291
100 98 96 95 91 87 81 76 67 61 53 51 46 41 32 20 12 355 350 351 356 352 350 347 339 344 337 333 339 332 325 316 309 304 296 294 290 300 295 297 293 294 293
104 100 95 88 84 78 71 63 58 53 45 39 43 30 28 23 5 358 359 359 6 359 354 357 355 341 338 331 325 318 313 304 296 296 292 289 291 293 294 293 294 297 296
96 93 90 86 83 78 73 66 55 50 44 43 33 35 36 21 7 9 16 27 18 7 2 349 350 348 341 334 330 335 335 329 302 287 281 281 284 288 293 290 289 284 281
91 89 89 86 83 77 71 63 57 53 49 47 46 50 35 20 15 17 23 32 26 26 15 2 1 348 346 347 338 336 333 331 330 312 297 291 292 293 289 286 287 286 284
86 86 87 86 79 70 61 56 57 54 53 52 49 44 33 22 26 27 29 34 25 24 16 8 2 359 358 356 349 337 333 334 340 337 340 337 327 328 319 301 287 270 285
78 89 88 83 75 71 63 58 58 56 51 59 59 45 27 25 28 30 28 29 30 22 10 9 8 6 3 6 360 346 336 334 339 347 354 0 358 355 344 320 303 276 253
87 90 86 78 74 72 68 62 62 56 57 54 48 43 29 17 32 33 37 35 24 19 14 5 360 8 9 7 5 354 346 345 343 337 336 338 345 347 350 351 343 327 234
93 86 79 73 69 69 69 64 63 54 53 47 41 32 24 24 37 36 36 41 26 17 9 6 2 12 10 8 9 7 7 3 354 350 347 345 339 332 349 359 6 15 35
95 89 81 76 71 61 60 62 61 55 46 35 28 21 13 20 26 30 28 26 26 23 13 13 9 14 17 15 13 14 13 1 356 357 349 344 342 347 341 1 34 41 58
95 96 84 73 70 68 59 53 59 53 45 34 31 24 17 23 18 22 23 27 35 34 19 13 13 13 16 18 20 13 6 1 358 356 349 347 353 359 355 355 344 16 20
96 92 92 77 68 65 63 58 62 63 58 53 50 39 19 19 22 47 35 32 41 37 24 18 20 14 15 11 7 4 1 2 360 356 352 349 349 7 4 8 15 36 54
85 95 96 85 74 73 66 67 65 65 62 56 48 47 46 40 40 51 40 41 53 48 35 23 18 13 10 5 1 357 360 358 355 352 354 354 355 350 360 8 15 21 29
83 95 100 87 84 86 83 77 69 64 58 49 45 47 51 51 48 47 53 53 48 47 36 23 20 13 7 5 2 2 355 353 356 358 355 353 356 351 5 21 16 19 31
91 87 107 103 99 94 87 77 62 47 41 41 41 40 40 45 44 44 48 50 40 41 35 24 16 13 9 5 2 1 357 359 1 358 357 356 358 358 10 26 25 21 19
96 110 116 121 106 95 94 86 79 66 54 48 41 46 54 41 40 41 43 47 43 37 33 29 20 14 9 7 6 4 3 1 3 360 359 357 359 2 13 26 27 28 30
78 88 89 110 120 104 94 84 92 71 64 60 50 40 45 50 50 42 39 41 40 45 36 30 23 18 13 10 10 8 7 9 8 6 0 358 360 7 7 14 20 28 31
89 84 81 79 76 76 76 74 68 67 59 66 57 49 45 41 41 48 45 44 42 43 41 33 25 20 17 15 12 11 11 10 11 9 3 3 2 7 9 12 13 21 35
96 94 95 91 89 79 76 78 75 70 64 57 62 52 50 48 44 40 45 45 48 46 37 31 31 27 23 21 17 14 13 13 14 12 11 9 1 9 11 14 16 17 27
96 89 83 89 91 89 80 73 68 70 66 59 54 60 50 47 43 42 42 44 48 44 35 27 27 24 25 27 27 23 18 18 16 14 13 9 5 7 14 17 17 17 20
110 102 95 87 90 90 82 80 71 65 66 61 57 55 52 47 45 39 40 42 43 41 37 27 24 20 20 24 26 25 24 23 23 22 22 11 9 18 15 21 21 20 21
85 81 76 78 81 79 74 79 80 70 61 62 60 55 53 45 43 42 36 39 38 38 33 25 19 15 17 20 23 25 24 25 28 28 28 27 26 25 24 20 26 24 24
90 87 81 76 74 73 75 71 69 66 62 58 58 55 51 47 38 37 35 35 33 35 31 26 17 10 14 18 19 22 23 26 29 34 31 30 28 27 22 18 25 29 27